This demonstration page uses our WeatherBlox Daily Observations layout. Learn more.

38.89511, -77.03637

Hourly Observations for June 11, 2015

Temp ( °F °C ) Dew Point ( °F °C ) Humidity (%) Winds ( mph kmh ) Pressure ( in mb ) Visibility ( mi km ) Precip ( " mm )
12:52 am 00:52 Clear 73 23 66 19 78 78 S 9 15 29.91 1013 9 14.484096 0 0
1:52 am 01:52 Clear 73 23 66 19 78 78 S 7 11 29.91 1013 9 14.484096 0 0
2:52 am 02:52 Clear 72 22 64 18 78 78 SSW 6 9 29.91 1013 8 12.874752 0 0
3:52 am 03:52 Clear 72 22 64 18 78 78 SSW 5 7 29.91 1013 9 14.484096 0 0
4:52 am 04:52 Clear 72 22 64 18 78 78 SSW 3 6 29.91 1013 8 12.874752 0 0
5:52 am 05:52 Partly Cloudy 72 22 64 18 78 78 SSW 5 7 29.94 1014 8 12.874752 0 0
6:52 am 06:52 Mostly Cloudy with Haze 73 23 66 19 78 78 SSW 8 13 29.94 1014 6 9.656064 0 0
7:52 am 07:52 Mostly Cloudy with Haze 75 24 66 19 74 74 S 3 6 29.97 1015 6 9.656064 0 0
8:52 am 08:52 Mostly Cloudy with Haze 77 25 68 20 74 74 S 6 9 29.97 1015 6 9.656064 0 0
9:52 am 09:52 Cloudy 81 27 70 21 70 70 S 8 13 29.97 1015 7 11.265408 0 0
10:52 am 10:52 Cloudy 82 28 72 22 70 70 S 10 17 29.97 1015 7 11.265408 0 0
11:52 am 11:52 Cloudy 86 30 72 22 62 62 S 10 17 29.97 1015 8 12.874752 0 0
12:52 pm 12:52 Cloudy 88 31 72 22 59 59 S 9 15 29.94 1014 8 12.874752 0 0
1:52 pm 13:52 Cloudy 91 33 68 20 46 46 SSE 10 17 29.94 1014 7 11.265408 0 0
2:52 pm 14:52 Mostly Cloudy 91 33 68 20 46 46 S 10 17 29.94 1014 8 12.874752 0 0
3:52 pm 15:52 Mostly Cloudy 91 33 72 22 52 52 S 10 17 29.91 1013 8 12.874752 0 0
4:52 pm 16:52 Mostly Cloudy 90 32 73 23 59 59 S 12 19 29.91 1013 8 12.874752 0 0
5:52 pm 17:52 Partly Cloudy 91 33 70 21 49 49 S 9 15 29.91 1013 9 14.484096 0 0
6:52 pm 18:52 Mostly Cloudy 90 32 72 22 55 55 S 9 15 29.91 1013 10 16.09344 0 0
7:52 pm 19:52 Mostly Cloudy 88 31 73 23 62 62 S 8 13 29.91 1013 10 16.09344 0 0
8:52 pm 20:52 Partly Cloudy 86 30 72 22 62 62 S 8 13 29.94 1014 10 16.09344 0 0
9:52 pm 21:52 Partly Cloudy 84 29 73 23 70 70 S 8 13 29.94 1014 10 16.09344 0 0
10:52 pm 22:52 Mostly Clear 82 28 73 23 74 74 S 8 13 29.97 1015 10 16.09344 0 0
11:52 pm 23:52 Partly Cloudy 82 28 73 23 74 74 S 8 13 29.97 1015 10 16.09344 0 0

Powered by AerisWeather